Home > Weather > Piešťany > Past weeks

Flag for Slovakia Weather for the Past 2 Weeks in Piešťany, Slovakia

Now
32 °F

Fog.


Feels Like: 26 °F
Forecast: 30 / 63 °F
Wind: 7 mph from Northeast

Location: Piestany

Current Time: Apr 29, 2016 at 6:52:36 AM

Latest Report: Apr 29, 2016 at 6:00 AM


Visibility: 0 mi

Pressure: 30.12 "Hg

Humidity: 100%

Dew Point: 32 °F

Location of PiešťanyLocation

Historic Weather in Piešťany — Graph

°F

Piešťany Temperature Yesterday

Maximum temperature yesterday: 50 °F (at 2:30 PM)
Minimum temperature yesterday: 28 °F (at 5:30 AM)
Average temperature yesterday: 40 °F

High & Low Weather Summary for the Past Weeks

 TemperatureHumidityPressure
High73 °F (Apr 17, 2:00 PM)100% (Apr 15, 4:00 AM)30.36 "Hg (Apr 15, 4:00 AM)
Low25 °F (Apr 26, 6:00 AM)31% (Apr 26, 5:00 PM)29.56 "Hg (Apr 24, 2:00 AM)
Average49 °F68%29.90 "Hg
* Reported Apr 14 6:00 AM — Apr 29 6:00 AM, Piešťany, Weather by CustomWeather, © 2016

Note: Actual official high and low records may vary slightly from our data, if they occured in-between our weather recording intervals... More about our weather records

Advertising

Piešťany Weather History for the Previous 24 Hours

Scroll right to see more
 ConditionsComfort  
Time TempWeatherWind HumidityBarometerVisibility
6:00 AM
Fri, Apr 29
32 °FFog.7 mph100%30.12 "Hg0 mi
5:30 AM30 °FIce fog.8 mph100%30.12 "Hg0 mi
4:30 AM32 °FChilly.6 mph93%30.12 "Hg4 mi
4:00 AM30 °FChilly.5 mph93%30.12 "Hg4 mi
3:00 AM32 °FChilly.6 mph93%30.12 "HgN/A
2:30 AM30 °FChilly.5 mph100%30.12 "Hg4 mi
2:00 AM30 °FChilly.2 mph100%30.12 "HgN/A
1:00 AM30 °FChilly.3 mph100%30.12 "Hg4 mi
12:30 AM32 °FFog.2 mph100%30.12 "Hg0 mi
12:00 AM34 °FPassing clouds.2 mph100%30.12 "Hg1 mi
11:30 PM
Thu, Apr 28
34 °FChilly.3 mph100%30.09 "HgN/A
11:00 PM34 °FChilly.5 mph100%30.09 "HgN/A
10:30 PM37 °FChilly.2 mph87%30.09 "HgN/A
10:00 PM37 °FClear.5 mph93%30.09 "Hg10 mi
9:30 PM37 °FClear.5 mph93%30.09 "Hg10 mi
9:00 PM39 °FClear.3 mph87%30.09 "Hg10 mi
8:30 PM41 °FSunny.1 mph81%30.07 "Hg10 mi
8:00 PM43 °FSunny.5 mph76%30.07 "Hg10 mi
7:30 PM45 °FScattered clouds.6 mph71%30.07 "HgN/A
7:00 PM45 °FBroken clouds.5 mph71%30.07 "HgN/A
6:30 PM45 °FBroken clouds.3 mph66%30.07 "HgN/A
6:00 PM45 °FLight rain. More clouds than sun.3 mph71%30.07 "HgN/A
5:30 PM45 °FLight rain. More clouds than sun.6 mph76%30.07 "HgN/A
5:00 PM45 °FLight rain. Overcast.8 mph76%30.07 "HgN/A
4:30 PM46 °FBroken clouds.9 mph62%30.04 "HgN/A
4:00 PM48 °FBroken clouds.9 mph58%30.04 "HgN/A
3:00 PM50 °FScattered clouds.6 mph54%30.07 "HgN/A
2:30 PM50 °FScattered clouds.7 mph58%30.07 "HgN/A
2:00 PM48 °FScattered clouds.6 mph58%30.07 "HgN/A
1:30 PM48 °FScattered clouds.7 mph62%30.07 "HgN/A
1:00 PM46 °FScattered clouds.6 mph66%30.07 "HgN/A
12:30 PM46 °FPassing clouds.6 mph62%30.07 "HgN/A
12:00 PM46 °FPassing clouds.8 mph71%30.07 "HgN/A
11:30 AM46 °FPassing clouds.2 mph62%30.07 "HgN/A
11:00 AM45 °FPassing clouds.3 mph66%30.07 "HgN/A
10:30 AM45 °FScattered clouds.6 mph71%30.07 "HgN/A
10:00 AM43 °FScattered clouds.6 mph71%30.07 "HgN/A
9:30 AM41 °FPassing clouds.5 mph81%30.07 "HgN/A
8:00 AM36 °FPassing clouds.3 mph93%30.04 "HgN/A
7:00 AM32 °FSunny.2 mph100%30.04 "Hg10 mi
6:00 AM30 °FClear.1 mph100%30.01 "Hg10 mi
Weather by CustomWeather, © 2016

See weather overviewHow to use our weather pages